This demonstration page uses our WeatherBlox Daily Observations layout. Learn more.

Left ArrowRight Arrow

Hourly Observations for May 10, 2020

Temp ( °F °C ) Dew Point ( °F °C ) Humidity (%) Winds ( mph kmh ) Pressure ( in mb ) Visibility ( mi km ) Precip ( " mm )
9:53 am 09:53 Mostly Sunny 53 11.7 33 0.6 47 47 VRB 5 7 30.12 1020 10 16.0934 N/A
10:53 am 10:53 Cloudy 56 13.3 34 1.1 44 44 SW 10 17 30.11 1020 10 16.0934 N/A
11:53 am 11:53 Mostly Cloudy 57 13.9 36 2.2 45 45 SSW 12 19 30.08 1019 10 16.0934 0.001 0.001
12:53 pm 12:53 Partly Cloudy 61 16.1 39 3.9 44 44 SSW 12 19 30.04 1017 10 16.0934 N/A
1:02 pm 13:02 Partly Cloudy with Nearby Thunderstorms 61 16.1 39 3.9 44 44 S 8 13 30.02 1017 10 16.0934 N/A
1:17 pm 13:17 Sunny 63 17.2 40 4.4 43 43 SW 14 22 30.01 1016 10 16.0934 N/A
1:53 pm 13:53 Sunny 64 17.8 40 4.4 41 41 SSW 12 19 30 1016 10 16.0934 N/A
2:53 pm 14:53 Sunny 65 18.3 40 4.4 40 40 S 14 22 29.93 1014 10 16.0934 N/A
3:27 pm 15:27 Cloudy with Nearby Thunderstorms 55 12.8 43 6.1 64 64 W 25 41 29.98 1015 4 6.43736 0.02 0.508
3:29 pm 15:29 Cloudy with Thunderstorms 54 12.2 44 6.7 69 69 W 16 26 29.98 1015 4 6.43736 0.02 0.508
3:53 pm 15:53 Cloudy with Nearby Thunderstorms 54 12.2 47 8.3 77 77 W 10 17 29.99 1016 9 14.48406 0.04 1.016
4:09 pm 16:09 Cloudy 56 13.3 47 8.3 72 72 WSW 9 15 29.98 1015 10 16.0934 0.001 0.001
4:45 pm 16:45 Partly Cloudy with Nearby Thunderstorms 60 15.6 47 8.3 62 62 WSW 7 11 29.96 1014 10 16.0934 0.001 0.001
4:53 pm 16:53 Partly Cloudy with Nearby Thunderstorms 59 15 45 7.2 60 60 W 10 17 29.96 1015 10 16.0934 0.001 0.001
5:08 pm 17:08 Mostly Cloudy 59 15 43 6.1 56 56 W 14 22 29.96 1014 10 16.0934 N/A
5:53 pm 17:53 Cloudy 59 15 39 3.9 48 48 WNW 23 37 29.98 1015 10 16.0934 N/A
6:53 pm 18:53 Cloudy 56 13.3 36 2.2 47 47 W 20 31 30.01 1016 10 16.0934 0.001 0.001
7:53 pm 19:53 Cloudy 52 11.1 37 2.8 57 57 WNW 14 22 30.04 1017 10 16.0934 0.001 0.001
8:53 pm 20:53 Cloudy 50 10 35 1.7 57 57 W 16 26 30.05 1018 10 16.0934 N/A
9:53 pm 21:53 Mostly Cloudy 48 8.9 36 2.2 63 63 W 12 19 30.04 1017 10 16.0934 N/A
10:53 pm 22:53 Cloudy 48 8.9 35 1.7 61 61 W 16 26 30.06 1018 10 16.0934 N/A
11:53 pm 23:53 Cloudy 47 8.3 35 1.7 63 63 W 15 24 30.06 1018 10 16.0934 N/A

Powered by AerisWeather